1998-067JK

Last updated on Sun May 29 2016 09:36:37 GMT+0000 (Coordinated Universal Time)

1 41489U 98067JK 16150.18488480 .00019676 00000-0 28607-3 0 9995 2 41489 51.6417 152.7543 0000790 22.3894 53.8281 15.55771469 909

Satellite not in orbit